[[{"header":{"parameterUnit":"m.s-1","parameterCategory":1,"la1":30.2992,"la2":30.254,"lo1":-89.0895,"lo2":-89.0443,"dy":0.0025,"dx":0.0025,"nx":19,"ny":19,"refTime":"2026-03-21T21:00:00:Z","depth":0,"parameterNumber":2,"parameterNumberName":"U-component_of_WINDS"},"data":[0,0,0,2.4181,2.4185,2.4428,2.4429,2.4734,2.4736,0,0,0,0,0,0,0,0,0,0,0,2.41,2.4101,2.418,2.4186,2.4428,2.4429,2.4733,2.4737,0,0,0,0,0,0,0,0,0,0,0,2.4099,2.4101,2.4103,2.4187,2.4428,2.4429,2.4733,2.4553,0,0,0,0,0,0,0,0,0,0,2.4319,2.4233,2.41,2.4103,2.4188,2.4428,2.443,2.4545,2.4564,2.462,0,2.4662,0,2.4704,2.4756,2.4757,0,0,0,2.4194,2.4217,2.429,2.4103,2.419,2.4427,2.4321,2.4556,2.4578,2.4646,2.4666,2.4678,2.4709,2.4758,2.4759,2.5042,2.5043,0,0,2.4181,2.4139,2.4275,2.4304,2.426,2.4313,2.4329,2.4569,2.4591,2.4667,2.4685,2.4714,2.476,2.4762,2.5041,2.5043,0,0,0,2.4137,2.4129,2.4197,2.4291,2.4335,2.432,2.4338,2.458,2.4605,2.4689,2.4717,2.4762,2.4765,2.504,2.5042,2.5046,0,0,0,2.4129,2.4104,2.4191,2.4168,2.433,2.4459,2.4342,2.4589,2.4617,2.4716,2.4762,2.4768,2.5039,2.5041,2.5044,2.5055,0,0,0,2.4087,2.4099,2.413,2.4165,2.4267,2.4456,2.4496,2.4596,2.4634,2.4757,2.4769,2.5039,2.5041,2.5042,2.5052,2.5118,0,0,0,2.4031,2.4131,2.413,2.4254,2.4265,2.4456,2.4495,2.464,2.4746,2.4763,2.504,2.5042,2.5041,2.505,2.5115,2.5165,2.5181,0,0,2.4134,2.4142,2.4219,2.4225,2.4404,2.4422,2.4606,2.4744,2.4797,2.4959,2.4967,2.5045,2.5052,2.5118,2.5291,2.5303,0,0,0,2.4238,2.4292,2.4349,2.4446,2.4553,2.4647,2.4761,2.4814,2.4954,2.4869,2.5088,2.5094,2.5134,2.516,2.5171,2.5209,2.5052,2.5052,2.5051,2.4323,2.4383,2.4516,2.4606,2.4701,2.4819,2.4904,2.4996,2.5029,2.5081,2.5128,2.5226,2.5254,2.5263,2.5302,2.516,2.5161,2.5161,2.5161,2.448,2.4567,2.4612,2.4755,2.4821,2.4945,2.5067,2.5087,2.5215,2.5193,2.5232,2.5202,2.5274,2.5312,2.5162,2.5161,2.5161,2.5161,2.5161,2.4542,2.4594,2.4655,2.4805,2.4916,2.5007,2.5128,2.5185,2.5239,2.5278,2.5336,2.5337,2.5344,2.5302,2.5302,2.5303,2.5303,2.5303,2.5304,2.458,2.4649,2.4742,2.4867,2.4939,2.5042,2.5167,2.5242,2.534,2.5372,2.5373,2.5404,2.527,2.5235,2.5309,2.5308,2.5307,2.5307,2.5306,2.4715,2.4694,2.4836,2.4909,2.5064,2.5172,2.5244,2.5393,2.5464,2.5523,2.5548,2.5439,2.5452,2.5444,2.5415,2.5532,2.5532,2.5532,2.5532,2.4766,2.4778,2.4939,2.5052,2.517,2.5251,2.5417,2.5518,2.562,2.567,2.5662,2.5629,2.5619,2.5638,2.5626,2.56,2.5762,2.5762,2.5762,2.4853,2.488,2.5006,2.5102,2.523,2.5339,2.5498,2.5632,2.5744,2.5773,2.571,2.57,2.5649,2.5628,2.5651,2.5631,2.5585,0,0]},{"header":{"parameterUnit":"m.s-1","parameterCategory":1,"la1":30.2992,"la2":30.254,"lo1":-89.0895,"lo2":-89.0443,"dy":0.0025,"dx":0.0025,"nx":19,"ny":19,"refTime":"2026-03-21T21:00:00:Z","depth":0,"parameterNumber":3,"parameterNumberName":"V-component_of_WINDS"},"data":[0,0,0,1.1262,1.1266,1.1448,1.1449,1.1675,1.1677,0,0,0,0,0,0,0,0,0,0,0,1.1206,1.1207,1.1262,1.1266,1.1448,1.1449,1.1675,1.1677,0,0,0,0,0,0,0,0,0,0,0,1.1205,1.1207,1.1208,1.1267,1.1448,1.1449,1.1674,1.1539,0,0,0,0,0,0,0,0,0,0,1.1364,1.1309,1.1206,1.1208,1.1268,1.1447,1.1449,1.1533,1.1548,1.1591,0,1.1628,0,1.1656,1.1692,1.1693,0,0,0,1.1269,1.1297,1.1348,1.1209,1.127,1.1447,1.1367,1.1541,1.1558,1.161,1.1632,1.164,1.166,1.1694,1.1695,1.1931,1.1932,0,0,1.1259,1.1237,1.1336,1.1359,1.133,1.1361,1.1372,1.1552,1.1573,1.1632,1.1646,1.1664,1.1695,1.1697,1.193,1.1931,0,0,0,1.1228,1.123,1.1277,1.1349,1.1382,1.1366,1.1379,1.1565,1.1583,1.1648,1.1666,1.1696,1.1699,1.1929,1.1931,1.1955,0,0,0,1.1222,1.1212,1.1272,1.1261,1.1379,1.1476,1.1389,1.157,1.1591,1.1665,1.1696,1.1701,1.1928,1.193,1.1952,1.197,0,0,0,1.1195,1.1209,1.1234,1.1259,1.1336,1.1474,1.1501,1.1575,1.1602,1.1693,1.1702,1.1927,1.193,1.195,1.1966,1.2023,0,0,0,1.1159,1.1256,1.1234,1.135,1.1335,1.1488,1.1501,1.1617,1.1698,1.1697,1.1928,1.193,1.1949,1.1963,1.202,1.2064,1.2082,0,0,1.1269,1.1269,1.1338,1.1324,1.1475,1.1462,1.1618,1.1714,1.1744,1.1867,1.1873,1.1953,1.1966,1.2022,1.2192,1.2205,0,0,0,1.1366,1.1415,1.146,1.1535,1.161,1.1674,1.1748,1.1783,1.1888,1.1803,1.1992,1.2,1.2034,1.2056,1.2067,1.2096,1.1941,1.194,1.194,1.149,1.152,1.1636,1.1688,1.1761,1.1834,1.1896,1.1955,1.1968,1.2012,1.2047,1.2146,1.2172,1.218,1.221,1.2076,1.2076,1.2077,1.2077,1.1651,1.1724,1.1735,1.185,1.1882,1.198,1.2054,1.2059,1.2153,1.2123,1.2155,1.2115,1.2194,1.2222,1.2079,1.2078,1.2078,1.2078,1.2078,1.1732,1.1772,1.1812,1.1921,1.2002,1.2052,1.2141,1.2168,1.2194,1.2226,1.2263,1.2263,1.2263,1.2242,1.2243,1.2243,1.2243,1.2244,1.2244,1.18,1.1844,1.1915,1.2,1.205,1.2119,1.2192,1.2242,1.2304,1.2316,1.2317,1.2321,1.2198,1.2163,1.2249,1.2248,1.2247,1.2247,1.2247,1.1946,1.1917,1.2027,1.2076,1.2176,1.2252,1.2285,1.2383,1.2428,1.247,1.2469,1.2374,1.2375,1.2367,1.2338,1.2464,1.2464,1.2464,1.2464,1.2012,1.2016,1.2132,1.2208,1.2287,1.2327,1.2447,1.2505,1.256,1.2589,1.2575,1.2541,1.2531,1.2538,1.2526,1.2499,1.2664,1.2664,1.2664,1.2102,1.2114,1.2211,1.2264,1.2343,1.241,1.2523,1.2609,1.2666,1.2673,1.2611,1.2603,1.2548,1.253,1.2533,1.2512,1.2465,0,0]}]]